Location: ??????
(36.0418°N, 43.6351°E)
Time: 03:49:18
(UTC+00:00)

Cosmos 614 Rocket - Pass Details

Date: 07 March 2021
Orbit: 734 x 763 km, 74.1° (Epoch: 19 April)

Event Time Altitude Azimuth Distance (km) Brightness Sun altitude
Exits shadow 01:57:03 27° 222° (SW) 1,420 5.0 -19.1°
Maximum altitude 01:59:43 57° 290° (WNW) 895 4.0 -18.6°
Drops below altitude 10° 02:04:51 10° 9° (N) 2,300 6.7 -17.5°
Sets 02:07:17 0° 13° (NNE) 3,228 7.5 -17.1°
